Home   Weather   Mamëzit Mali i   Past weeks
Flag for Albania

Past Weather in Mamëzit Mali i, Albania — Yesterday and Last 2 Weeks

Now
70 °F

Clear.


Feels Like: 70 °F
Forecast: 82 / 55 °F
Wind: 3 mph from North

Location: Tirana Airport

Current Time: Oct 22, 2019 at 6:46:00 pm

Latest Report: Oct 22, 2019 at 6:20 pm


Visibility: 10 mi

Pressure: 30.12 "Hg

Humidity: 73%

Dew Point: 61 °F

Location of Mamëzit Mali iLocation

Past Weather in Mamëzit Mali i — Graph

°F

Mamëzit Mali i Temperature Yesterday

Maximum temperature yesterday: 79 °F (at 1:20 pm)
Minimum temperature yesterday: 52 °F (at 6:50 am)
Average temperature yesterday: 63 °F

High & Low Weather Summary for the Past Weeks

 TemperatureHumidityPressure
High86 °F (Oct 10, 12:50 pm)100% (Oct 12, 5:20 am)30.21 "Hg (Oct 12, 5:20 am)
Low48 °F (Oct 8, 6:20 am)34% (Oct 8, 1:20 pm)29.71 "Hg (Oct 7, 5:20 pm)
Average65 °F78%30.10 "Hg
* Reported Oct 7 5:20 pm — Oct 22 5:20 pm, Mamëzit Mali i. Weather by CustomWeather, © 2019

Note: Actual official high and low records may vary slightly from our data, if they occured in-between our weather recording intervals... More about our weather records

Advertising

Mamëzit Mali i Weather History for the Previous 24 Hours

Scroll right to see more
 ConditionsComfort  
Time TempWeatherWind HumidityBarometerVisibility
5:20 pm
Tue, Oct 22
73 °FSunny.6 mph65%30.12 "Hg10 mi
4:50 pm77 °FSunny.6 mph65%30.09 "Hg10 mi
4:20 pm77 °FPassing clouds.6 mph61%30.09 "HgN/A
3:50 pm77 °FSunny.8 mph57%30.09 "Hg10 mi
3:20 pm79 °FSunny.7 mph54%30.12 "Hg10 mi
2:50 pm79 °FSunny.7 mph51%30.12 "Hg10 mi
2:20 pm81 °FPassing clouds.7 mph51%30.12 "HgN/A
1:50 pm81 °FSunny.7 mph45%30.12 "Hg10 mi
1:20 pm81 °FSunny.7 mph45%30.12 "Hg10 mi
12:50 pm81 °FSunny.6 mph48%30.15 "Hg10 mi
12:20 pm79 °FPassing clouds.5 mph51%30.15 "HgN/A
11:50 am77 °FSunny.1 mph51%30.18 "Hg10 mi
11:20 am73 °FSunny.1 mph57%30.18 "Hg10 mi
10:50 am72 °FSunny.1 mph65%30.18 "Hg10 mi
10:20 am70 °FSunny.No wind69%30.18 "Hg10 mi
9:50 am68 °FSunny.1 mph69%30.18 "Hg10 mi
9:20 am64 °FSunny.2 mph78%30.18 "Hg10 mi
8:20 am57 °FClear.3 mph94%30.15 "Hg6 mi
7:50 am52 °FClear.2 mph94%30.15 "Hg4 mi
7:20 am52 °FFog.1 mph94%30.15 "Hg4 mi
6:50 am52 °FFog.2 mph94%30.15 "Hg4 mi
6:20 am54 °FClear.3 mph94%30.15 "Hg4 mi
5:50 am54 °FClear.2 mph94%30.15 "Hg4 mi
5:20 am52 °FClear.5 mph94%30.15 "Hg4 mi
4:50 am54 °FClear.1 mph94%30.15 "Hg5 mi
4:20 am55 °FClear.2 mph94%30.15 "Hg4 mi
3:50 am54 °FClear.2 mph94%30.15 "Hg5 mi
3:20 am55 °FClear.1 mph94%30.15 "Hg4 mi
2:50 am55 °FClear.1 mph94%30.15 "Hg4 mi
2:20 am57 °FClear.3 mph94%30.18 "Hg10 mi
1:50 am55 °FClear.5 mph94%30.18 "Hg10 mi
1:20 am57 °FClear.3 mph94%30.18 "Hg10 mi
12:50 am55 °FClear.5 mph94%30.18 "Hg10 mi
12:20 am57 °FClear.2 mph94%30.18 "Hg10 mi
11:50 pm
Mon, Oct 21
57 °FClear.2 mph94%30.18 "Hg10 mi
11:20 pm57 °FClear.2 mph94%30.18 "Hg10 mi
10:50 pm59 °FClear.3 mph94%30.18 "Hg10 mi
10:20 pm61 °FClear.5 mph88%30.18 "Hg10 mi
9:50 pm59 °FClear.3 mph94%30.18 "Hg10 mi
9:20 pm61 °FClear.3 mph88%30.18 "Hg10 mi
8:50 pm61 °FClear.5 mph94%30.18 "Hg10 mi
8:20 pm61 °FClear.5 mph88%30.18 "Hg10 mi
7:50 pm63 °FClear.2 mph83%30.18 "Hg10 mi
7:20 pm64 °FClear.No wind83%30.18 "Hg10 mi
6:50 pm66 °FClear.No wind83%30.18 "Hg10 mi
6:20 pm68 °FClear.2 mph78%30.15 "Hg10 mi
Weather by CustomWeather, © 2019

See weather overview